Wind_Speed
33 29 37 34 31 27 23 24 24 29 24 24 24 17 18 14 14 12 10 9 11 6 9 6 10 8 6 12 14 13 14 12 12 8 11 12 16 13 14 14 10 14 15
36 35 38 36 35 27 23 23 24 26 24 22 21 19 17 16 12 10 9 8 10 8 7 7 8 10 6 8 11 14 14 17 12 9 14 7 11 10 10 11 10 13 14
37 40 42 40 37 30 26 25 25 26 25 25 22 21 24 20 17 14 11 7 8 5 7 7 9 7 7 7 10 10 8 13 11 7 10 7 8 15 19 19 12 8 12
30 37 42 44 38 30 26 26 25 26 25 26 24 21 19 19 16 12 11 10 7 5 8 5 7 6 7 9 7 12 11 10 8 12 13 12 11 13 16 17 15 12 12
36 34 35 40 35 28 26 28 25 28 27 26 23 20 17 16 17 18 13 10 9 7 6 7 7 6 9 8 9 8 8 10 14 15 13 12 18 14 9 13 15 14 16
47 29 36 34 36 29 25 28 27 29 30 27 25 23 19 16 16 17 14 16 12 9 8 5 5 8 8 7 8 10 10 9 14 16 17 23 14 17 10 9 15 17 17
47 36 39 37 36 34 27 27 27 28 31 30 28 25 22 19 15 15 13 14 12 10 10 9 6 6 8 7 7 9 9 8 8 14 15 18 17 19 15 10 20 18 17
47 42 32 29 35 30 25 27 27 26 29 30 28 27 26 23 19 17 12 13 13 13 13 13 10 7 8 7 7 7 8 8 8 9 7 14 7 12 19 18 16 17 16
46 40 41 30 30 32 23 23 27 26 26 28 27 27 27 26 23 19 15 13 10 13 16 15 12 10 9 9 8 9 8 7 7 6 7 8 8 14 16 14 13 12 13
43 36 37 43 35 32 26 25 27 30 25 26 27 26 27 26 23 22 19 16 12 13 11 14 14 12 10 10 10 10 10 9 8 8 7 8 10 11 14 14 10 9 7
42 22 36 40 42 36 35 27 23 31 33 29 28 28 28 29 28 25 23 20 18 18 14 10 10 11 10 10 10 11 12 12 11 9 9 8 10 12 11 10 10 9 7
35 23 14 44 44 42 38 35 29 26 32 32 30 29 28 28 31 29 25 23 21 21 18 14 12 11 11 11 12 13 12 13 13 11 11 11 10 9 10 10 9 8 7
36 29 13 6 26 37 39 35 37 29 29 34 34 32 31 30 31 31 28 26 24 23 22 18 14 15 14 13 13 13 14 14 14 14 13 12 13 12 11 10 9 9 9
36 24 18 8 18 35 45 36 35 36 27 32 33 32 30 30 30 31 31 30 28 26 24 22 19 16 16 15 15 14 14 13 15 16 16 17 15 14 14 14 13 12 12
17 27 32 20 20 33 47 35 34 35 34 30 30 25 30 29 30 31 31 31 31 28 26 24 22 22 20 19 18 16 15 14 14 15 17 18 19 20 20 19 17 17 16
14 9 13 21 31 30 27 45 34 39 37 32 29 25 22 29 30 29 30 31 29 30 30 28 27 25 24 21 20 19 17 17 17 15 15 17 20 21 21 21 19 19 18
13 11 3 3 17 39 27 38 27 36 32 34 31 29 26 23 29 28 28 28 30 29 31 31 29 28 25 24 23 22 21 19 18 18 17 16 17 19 21 22 21 20 19
10 3 5 9 11 36 41 45 46 51 32 26 30 30 32 27 24 28 30 29 28 30 30 30 31 30 28 25 25 24 24 23 22 21 20 19 18 18 19 19 20 18 18
21 15 9 9 3 13 15 39 54 53 40 32 28 29 30 30 25 23 22 27 29 29 30 29 30 31 29 28 26 26 27 26 25 23 22 22 21 20 21 20 19 18 17
28 29 21 14 9 6 7 15 33 39 38 20 22 26 30 32 29 25 25 22 21 24 28 29 29 29 29 28 27 27 28 27 26 26 25 24 22 22 22 23 21 18 15
44 39 25 18 11 9 14 21 9 34 26 24 20 24 28 29 27 28 29 27 24 23 22 26 29 29 30 30 29 28 29 29 27 28 26 25 24 23 23 24 25 22 21
39 54 34 22 10 15 16 16 17 20 28 31 30 33 28 32 34 32 31 32 31 29 27 26 26 29 30 30 30 30 31 29 31 29 27 27 26 26 26 26 25 24 24
45 51 50 36 31 18 18 23 29 28 32 35 36 36 33 30 36 37 35 34 35 33 31 31 31 28 29 29 29 29 30 30 32 32 30 30 29 29 29 29 28 26 25
54 45 37 45 38 25 22 19 27 34 37 43 44 42 39 32 34 39 40 38 36 37 35 32 31 33 33 32 31 31 30 30 32 33 34 32 31 32 31 29 26 25 24
50 47 43 47 52 41 31 27 23 33 37 37 43 41 38 36 32 35 39 41 39 38 36 30 27 28 28 31 29 29 29 29 32 32 34 35 35 33 32 31 28 26 27
46 41 44 46 51 55 38 33 32 31 35 39 37 44 44 41 38 36 34 38 40 40 39 31 30 31 29 26 26 30 29 28 29 31 33 33 33 34 33 33 31 30 29
Wind_Direction
174 178 201 208 217 220 217 205 189 189 179 179 179 190 176 164 162 161 162 132 124 126 122 113 108 106 110 129 142 141 128 135 111 102 90 99 84 50 37 38 54 73 72
186 193 202 214 222 218 208 205 198 191 178 181 179 188 174 163 179 166 155 148 118 119 127 116 108 106 123 100 162 160 144 164 172 163 112 106 93 99 42 30 36 61 86
200 195 205 216 221 219 208 201 202 195 185 182 184 189 186 187 173 170 168 159 121 130 111 112 102 110 125 112 126 148 168 158 156 160 109 119 113 87 86 58 55 49 86
215 212 207 217 222 221 210 203 202 197 192 190 191 194 196 192 175 170 179 163 155 167 129 121 97 85 90 106 116 137 146 145 148 143 129 131 124 92 68 65 72 66 88
228 222 220 217 224 220 206 202 202 198 200 197 194 196 197 191 183 176 181 180 175 167 153 141 120 108 94 100 120 114 135 150 144 140 137 131 124 114 120 76 83 93 102
213 233 227 222 228 225 213 205 205 201 202 200 198 197 199 199 199 189 194 185 169 178 166 163 138 116 107 122 119 123 131 129 132 128 139 134 143 145 115 114 108 111 109
207 230 226 226 229 228 215 207 211 206 208 202 202 200 199 206 208 216 197 185 181 183 173 171 177 141 133 134 131 125 129 126 130 149 148 161 168 142 139 150 129 122 118
201 215 233 228 229 229 216 208 211 212 210 214 207 203 202 206 208 217 223 203 179 191 189 184 177 176 157 156 155 141 137 134 137 145 144 176 183 168 156 153 141 133 130
199 202 225 244 232 230 222 209 208 213 211 216 215 209 208 210 209 213 214 221 205 198 201 187 189 192 179 175 177 168 162 152 148 147 144 151 167 179 165 152 157 153 141
202 207 217 225 235 233 225 219 207 211 212 211 217 215 214 217 216 214 217 220 218 234 214 198 195 197 198 188 194 185 176 172 167 160 158 153 152 157 161 158 177 169 153
206 268 205 223 225 234 238 222 210 205 210 211 210 216 213 214 222 220 217 215 218 233 236 224 206 205 206 211 202 204 194 189 177 172 172 168 164 164 177 179 175 172 175
211 199 239 208 226 229 232 237 220 207 206 210 213 213 217 214 219 225 223 221 217 227 237 235 216 225 225 218 215 214 211 205 199 187 183 185 191 190 194 196 204 209 213
212 202 262 199 211 231 231 225 236 217 207 208 212 213 214 217 217 221 221 224 222 225 234 241 228 220 223 227 225 224 218 209 211 212 202 196 199 205 212 221 228 238 250
212 225 213 181 220 232 234 222 228 232 208 209 211 216 215 216 219 221 222 220 223 224 228 233 241 237 234 234 230 231 230 217 214 216 220 219 213 212 221 231 238 248 259
204 224 204 230 206 231 222 220 225 235 218 209 210 215 216 214 215 219 223 225 220 223 225 230 231 236 238 235 234 233 232 233 228 223 222 225 229 230 231 234 240 250 257
139 184 260 237 208 205 236 233 219 233 223 218 215 213 217 217 215 216 219 225 226 221 224 224 229 229 233 236 235 234 233 231 236 236 231 230 231 232 235 239 242 249 256
175 142 55 176 215 215 223 224 220 221 228 224 221 216 218 218 217 216 218 220 226 224 222 225 227 232 233 233 234 233 235 235 235 238 241 239 239 239 239 241 243 247 256
207 193 88 46 214 236 241 209 214 217 227 231 226 219 217 216 217 219 219 218 220 228 228 226 227 231 234 233 233 237 236 236 237 237 239 242 245 247 246 243 243 244 249
244 229 280 243 346 335 323 231 219 198 214 227 237 223 216 214 213 219 223 227 227 225 230 231 230 231 231 234 234 238 242 239 238 240 244 247 246 246 251 249 242 239 242
264 247 220 204 245 304 265 235 244 226 209 220 245 244 223 216 218 220 226 225 227 231 229 233 235 235 235 233 234 237 243 245 244 245 246 247 247 243 243 251 253 245 253
253 240 234 239 218 326 275 260 220 184 207 229 246 263 245 220 211 216 221 226 226 227 230 232 235 235 234 234 235 234 239 246 248 248 247 247 249 251 250 247 245 249 258
244 249 250 227 265 285 241 228 258 221 222 231 233 245 253 233 222 222 223 224 230 232 232 231 232 235 236 236 235 236 238 239 245 247 248 248 245 244 246 247 250 260 266
248 237 237 251 268 266 247 236 229 226 217 232 239 238 244 243 233 232 231 228 229 231 234 236 236 239 238 237 235 235 237 239 242 246 249 249 246 243 240 243 249 255 263
252 248 251 242 253 253 250 245 235 224 225 231 239 243 241 244 244 233 233 235 232 231 232 237 241 237 239 242 237 234 235 238 242 245 248 251 250 247 247 249 251 259 270
251 251 250 245 245 253 249 232 244 233 225 230 235 239 244 244 242 244 243 240 237 234 232 238 240 242 247 244 244 240 239 243 245 252 253 251 251 254 256 256 260 266 268
245 241 242 242 242 245 248 248 245 240 237 234 236 237 242 242 240 243 247 244 242 236 231 232 235 239 248 248 244 248 248 248 248 250 252 254 255 255 256 258 261 262 268
Height
3185 3190 3192 3192 3193 3194 3198 3199 3203 3208 3210 3214 3216 3220 3225 3226 3229 3231 3232 3235 3237 3237 3236 3238 3238 3237 3238 3240 3241 3243 3244 3246 3245 3247 3247 3248 3249 3250 3248 3248 3249 3249 3250
3183 3186 3190 3189 3190 3192 3196 3199 3202 3207 3209 3212 3217 3220 3223 3226 3229 3230 3232 3233 3235 3237 3237 3237 3237 3238 3239 3240 3241 3242 3243 3245 3246 3249 3249 3251 3251 3250 3251 3251 3251 3250 3252
3179 3184 3187 3185 3187 3189 3193 3197 3201 3206 3208 3211 3214 3218 3221 3223 3226 3230 3231 3232 3234 3236 3237 3238 3238 3239 3240 3240 3241 3242 3243 3244 3247 3249 3250 3252 3253 3252 3253 3254 3253 3253 3254
3177 3181 3184 3183 3183 3186 3191 3195 3200 3204 3207 3209 3212 3216 3221 3223 3226 3229 3231 3232 3234 3236 3238 3238 3239 3240 3240 3241 3241 3243 3244 3245 3247 3249 3251 3253 3254 3256 3256 3255 3255 3255 3257
3171 3175 3178 3180 3181 3185 3189 3193 3197 3201 3204 3207 3211 3214 3218 3222 3224 3227 3229 3231 3234 3236 3237 3238 3240 3242 3242 3241 3243 3244 3245 3246 3247 3249 3252 3253 3254 3256 3256 3257 3258 3259 3260
3166 3171 3175 3180 3179 3183 3187 3190 3193 3198 3201 3205 3209 3211 3215 3219 3221 3224 3227 3230 3233 3235 3237 3238 3240 3242 3243 3244 3245 3246 3246 3249 3249 3250 3251 3254 3255 3256 3257 3257 3259 3261 3263
3162 3167 3170 3175 3177 3178 3183 3188 3190 3195 3198 3201 3205 3209 3212 3216 3220 3223 3225 3228 3231 3234 3236 3238 3240 3242 3245 3246 3246 3247 3248 3250 3250 3252 3253 3254 3254 3255 3257 3258 3258 3260 3262
3155 3161 3166 3172 3175 3176 3181 3185 3188 3191 3195 3199 3202 3206 3209 3213 3217 3220 3224 3226 3230 3232 3234 3237 3239 3242 3244 3246 3247 3248 3249 3250 3251 3252 3254 3256 3257 3258 3257 3259 3261 3261 3262
3154 3157 3166 3170 3173 3175 3178 3182 3185 3188 3192 3196 3200 3203 3206 3209 3213 3217 3221 3224 3228 3231 3233 3235 3238 3241 3243 3245 3247 3249 3250 3251 3251 3252 3253 3255 3257 3258 3259 3260 3262 3263 3263
3149 3154 3161 3168 3173 3174 3175 3179 3182 3185 3189 3193 3196 3200 3203 3206 3210 3214 3218 3221 3226 3227 3231 3233 3235 3238 3241 3243 3246 3248 3250 3251 3252 3253 3254 3255 3257 3259 3260 3260 3262 3264 3264
3140 3142 3158 3166 3165 3171 3172 3175 3178 3180 3183 3187 3191 3194 3198 3202 3206 3210 3214 3218 3222 3225 3228 3231 3234 3236 3239 3241 3244 3246 3248 3250 3251 3252 3254 3255 3257 3258 3261 3262 3263 3263 3264
3133 3134 3147 3155 3158 3160 3167 3170 3172 3176 3178 3183 3187 3190 3194 3198 3201 3204 3210 3214 3219 3221 3224 3227 3231 3233 3236 3238 3241 3244 3246 3248 3250 3252 3253 3254 3256 3258 3259 3260 3261 3262 3263
3127 3133 3134 3140 3149 3154 3159 3162 3166 3169 3174 3176 3180 3184 3188 3192 3195 3199 3204 3209 3213 3217 3219 3223 3227 3231 3234 3236 3238 3240 3243 3245 3247 3249 3251 3253 3254 3255 3257 3258 3259 3260 3260
3132 3132 3136 3137 3143 3147 3152 3155 3159 3163 3168 3171 3173 3177 3181 3186 3190 3195 3198 3203 3207 3212 3215 3219 3222 3226 3229 3231 3234 3236 3238 3242 3244 3246 3248 3250 3251 3253 3254 3255 3256 3257 3257
3130 3134 3135 3136 3140 3146 3147 3149 3153 3157 3162 3166 3168 3172 3176 3180 3184 3187 3193 3197 3201 3206 3211 3214 3218 3221 3224 3227 3229 3232 3235 3237 3239 3242 3244 3246 3247 3249 3250 3251 3252 3253 3253
3129 3132 3126 3124 3126 3136 3142 3144 3147 3147 3158 3162 3165 3169 3172 3175 3177 3181 3186 3191 3195 3200 3203 3207 3211 3214 3218 3222 3225 3227 3230 3233 3235 3237 3239 3241 3242 3244 3245 3246 3248 3249 3249
3119 3120 3116 3117 3123 3133 3139 3141 3144 3143 3152 3157 3161 3164 3169 3170 3173 3176 3180 3185 3188 3193 3196 3200 3204 3208 3213 3217 3220 3222 3223 3226 3229 3232 3234 3236 3237 3239 3240 3241 3242 3243 3244
3106 3109 3112 3115 3121 3128 3129 3132 3131 3135 3147 3152 3155 3158 3162 3166 3168 3170 3174 3178 3182 3186 3189 3194 3198 3202 3206 3211 3214 3217 3218 3220 3223 3225 3228 3230 3232 3233 3234 3235 3236 3237 3238
3101 3100 3105 3114 3114 3114 3114 3114 3109 3117 3136 3145 3149 3152 3156 3161 3164 3166 3170 3173 3176 3180 3184 3187 3191 3194 3199 3203 3208 3210 3212 3214 3216 3219 3221 3223 3225 3228 3228 3228 3230 3231 3233
3096 3095 3095 3101 3109 3114 3117 3115 3104 3123 3131 3137 3142 3148 3151 3155 3158 3162 3165 3169 3171 3175 3178 3181 3184 3188 3192 3196 3200 3203 3205 3207 3210 3212 3214 3216 3218 3220 3222 3222 3223 3224 3227
3087 3091 3096 3098 3101 3104 3110 3113 3110 3116 3125 3131 3135 3141 3145 3148 3152 3155 3159 3163 3166 3170 3172 3175 3178 3180 3184 3188 3192 3195 3197 3200 3202 3204 3207 3209 3211 3213 3215 3216 3217 3219 3221
3082 3084 3091 3095 3093 3095 3103 3110 3107 3107 3117 3120 3125 3134 3138 3142 3145 3147 3152 3156 3159 3162 3165 3168 3170 3173 3176 3180 3184 3187 3189 3193 3193 3196 3199 3202 3204 3206 3208 3210 3212 3213 3214
3070 3078 3085 3089 3089 3091 3094 3098 3102 3108 3114 3117 3124 3128 3130 3133 3136 3139 3143 3147 3151 3154 3157 3161 3163 3166 3169 3172 3176 3179 3183 3185 3186 3189 3191 3194 3196 3199 3201 3204 3206 3207 3208
3060 3068 3077 3080 3083 3086 3090 3092 3097 3103 3107 3111 3115 3120 3122 3123 3126 3130 3134 3137 3142 3146 3149 3152 3155 3158 3161 3164 3168 3171 3175 3178 3180 3182 3184 3187 3189 3190 3193 3196 3200 3201 3202
3046 3055 3063 3069 3074 3080 3084 3088 3090 3095 3099 3103 3106 3108 3111 3114 3117 3121 3124 3128 3134 3138 3142 3145 3149 3151 3153 3156 3161 3165 3168 3172 3174 3176 3177 3179 3181 3184 3187 3190 3192 3194 3194
3035 3043 3051 3056 3063 3069 3074 3080 3085 3087 3088 3091 3094 3098 3102 3105 3109 3112 3115 3118 3123 3128 3133 3137 3140 3144 3147 3150 3153 3155 3159 3164 3167 3167 3169 3172 3174 3177 3179 3181 3183 3184 3185